Location: Winthrop
(48.4780°N, 120.1850°W)
Time: 23:00:34
(UTC-07:00)

S-56A Canister/Altair - Pass Details

Date: 09 June 2023
Orbit: 640 x 2489 km, 38.9° (Epoch: 29 September)

Event Time Altitude Azimuth Distance (km) Brightness Sun altitude
Rises 22:56:52 0° 263° (W) 5,395 12.1 -13.4°
Reaches altitude 10° 23:00:10 10° 259° (W) 4,593 11.7 -13.7°
Maximum altitude 23:13:09 57° 186° (S) 2,769 10.0 -14.6°
Drops below altitude 10° 23:27:34 10° 114° (ESE) 5,055 11.3 -15.6°
Sets 23:31:24 0° 111° (ESE) 5,953 11.7 -15.8°
